Weather History for KPSO - October, 2012

Change the Weather History Date:

Tuesday, October 23, 2012

  Actual Average (KDRO) Record (KDRO)
Temperature  
Mean Temperature 48 °F 44 °F  
Max Temperature 63 °F 60 °F 77 °F (2003)
Min Temperature 34 °F 29 °F 15 °F (2008)
Degree Days  
Heating Degree Days 16 21  
Month to date heating degree days 382  
Since 1 July heating degree days 606  
Cooling Degree Days 0 0  
Month to date cooling degree days 0  
Year to date cooling degree days 243  
Moisture  
Dew Point 24 °F    
Average Humidity 42    
Maximum Humidity 71    
Minimum Humidity 16    
Precipitation  
Precipitation 0.00 in 0.03 in 0.83 in (2000)
Month to date precipitation 1.04  
Year to date precipitation 12.92  
Sea Level Pressure  
Sea Level Pressure 30.09 in    
Wind  
Wind Speed 3 mph (SSW)    
Max Wind Speed 21 mph    
Max Gust Speed 28 mph    
Visibility 10 miles    
Events      
T = Trace of Precipitation, MM = Missing Value Source: NWS Daily Summary

Daily Weather History Graph

Daily Weather History Graph

Search for Another Location

Airport or City:

Trip Planner

Search our weather history database for the weather conditions in past years. The results will help you decide how hot, cold, wet, or windy it might be!

Date:

Astronomy

Oct. 23, 2012 Rise Set
Actual Time 7:24 AM MDT 6:20 PM MDT
Civil Twilight 6:57 AM MDT 6:46 PM MDT
Nautical Twilight 6:27 AM MDT 7:17 PM MDT
Astronomical Twilight 5:56 AM MDT 7:47 PM MDT
Moon 2:58 PM MDT (10/23) 1:26 AM MDT (10/23)
Length of Visible Light 11h 48m
Length of Day
10h 55m
Waxing Gibbous, 67% of the Moon is Illuminated
Oct 23
Waxing Gibbous
Oct 29
Full
Nov 6
Last Quarter
Nov 13
New
Nov 20
First Quarter

Hourly Weather History & Observations

Time (MDT) Temp. Windchill Dew Point Humidity Pressure Visibility Wind Dir Wind Speed Gust Speed Precip Events Conditions
12:15 AM 35.2 °F - 24.1 °F 64% 30.10 in 10.0 mi Calm Calm - N/A   Clear
12:35 AM 38.1 °F - 25.2 °F 60% 30.11 in 10.0 mi Calm Calm - N/A   Scattered Clouds
12:55 AM 36.3 °F - 24.4 °F 62% 30.11 in 10.0 mi Calm Calm - N/A   Mostly Cloudy
1:15 AM 36.3 °F - 24.6 °F 63% 30.10 in 10.0 mi Calm Calm - N/A   Scattered Clouds
1:55 AM 35.2 °F - 24.8 °F 66% 30.11 in 10.0 mi Calm Calm - N/A   Clear
2:15 AM 36.9 °F - 25.7 °F 64% 30.11 in 10.0 mi Calm Calm - N/A   Scattered Clouds
2:35 AM 36.5 °F - 24.8 °F 63% 30.11 in 10.0 mi Calm Calm - N/A   Overcast
2:55 AM 37.0 °F - 25.3 °F 63% 30.11 in 10.0 mi Calm Calm - N/A   Overcast
3:15 AM 39.7 °F - 25.7 °F 57% 30.10 in 10.0 mi Calm Calm - N/A   Overcast
3:35 AM 41.4 °F - 26.4 °F 55% 30.10 in 10.0 mi Calm Calm - N/A   Overcast
4:15 AM 41.4 °F - 26.4 °F 55% 30.10 in 10.0 mi Calm Calm - N/A   Mostly Cloudy
4:35 AM 41.2 °F - 26.1 °F 55% 30.10 in 10.0 mi Calm Calm - N/A   Mostly Cloudy
4:55 AM 40.3 °F - 27.0 °F 59% 30.10 in 10.0 mi Calm Calm - N/A   Mostly Cloudy
5:35 AM 41.2 °F - 26.1 °F 55% 30.11 in 10.0 mi Calm Calm - N/A   Clear
6:15 AM 36.9 °F - 26.8 °F 67% 30.12 in 10.0 mi Calm Calm - N/A   Clear
6:35 AM 37.9 °F - 27.3 °F 66% 30.12 in 10.0 mi Calm Calm - N/A   Clear
6:55 AM 36.3 °F - 27.1 °F 69% 30.13 in 10.0 mi Calm Calm - N/A   Clear
7:15 AM 34.9 °F - 26.4 °F 71% 30.13 in 10.0 mi Calm Calm - N/A   Scattered Clouds
7:35 AM 37.0 °F - 28.2 °F 70% 30.13 in 10.0 mi Calm Calm - N/A   Mostly Cloudy
7:55 AM 36.9 °F - 27.5 °F 69% 30.13 in 10.0 mi Calm Calm - N/A   Mostly Cloudy
8:15 AM 40.6 °F 38.6 °F 28.8 °F 63% 30.13 in 10.0 mi SSE 3.5 mph - N/A   Mostly Cloudy
8:35 AM 40.5 °F - 30.2 °F 67% 30.14 in 10.0 mi Calm Calm - N/A   Scattered Clouds
8:55 AM 47.5 °F - 30.2 °F 51% 30.15 in 10.0 mi NNE 6.9 mph - N/A   Clear
9:15 AM 48.2 °F - 30.2 °F 50% 30.16 in 10.0 mi ENE 3.5 mph - N/A   Scattered Clouds
9:55 AM 50.9 °F - 30.0 °F 45% 30.16 in 10.0 mi SE 3.5 mph - N/A   Mostly Cloudy
10:15 AM 50.9 °F - 30.4 °F 45% 30.16 in 10.0 mi SSE 9.2 mph - N/A   Overcast
10:35 AM 51.8 °F - 30.0 °F 43% 30.16 in 10.0 mi South 4.6 mph - N/A   Mostly Cloudy
10:55 AM 52.7 °F - 28.9 °F 40% 30.15 in 10.0 mi SSW 4.6 mph - N/A   Mostly Cloudy
11:15 AM 54.9 °F - 27.1 °F 34% 30.14 in 10.0 mi SSW 4.6 mph - N/A   Mostly Cloudy
11:35 AM 54.7 °F - 24.3 °F 31% 30.14 in 10.0 mi WSW 11.5 mph - N/A   Mostly Cloudy
11:55 AM 55.2 °F - 21.0 °F 26% 30.13 in 10.0 mi SSW 8.1 mph - N/A   Mostly Cloudy
12:15 PM 57.0 °F - 22.5 °F 26% 30.13 in 10.0 mi SW 8.1 mph 19.6 mph N/A   Scattered Clouds
12:35 PM 58.1 °F - 24.4 °F 27% 30.11 in 10.0 mi SW 6.9 mph 16.1 mph N/A   Clear
12:55 PM 58.8 °F - 24.6 °F 27% 30.11 in 10.0 mi SW 9.2 mph 19.6 mph N/A   Clear
1:15 PM 58.6 °F - 24.1 °F 27% 30.10 in 10.0 mi WSW 9.2 mph - N/A   Mostly Cloudy
1:35 PM 60.8 °F - 24.4 °F 25% 30.09 in 10.0 mi SSW 12.7 mph 19.6 mph N/A   Mostly Cloudy
1:55 PM 61.3 °F - 24.4 °F 24% 30.08 in 10.0 mi SW 11.5 mph 23.0 mph N/A   Scattered Clouds
2:15 PM 61.5 °F - 24.4 °F 24% 30.07 in 10.0 mi WSW 15.0 mph 23.0 mph N/A   Scattered Clouds
2:35 PM 60.1 °F - 23.9 °F 25% 30.07 in 10.0 mi SSW 11.5 mph 17.3 mph N/A   Mostly Cloudy
2:55 PM 63.1 °F - 22.1 °F 21% 30.05 in 10.0 mi SSW 20.7 mph 27.6 mph N/A   Mostly Cloudy
3:15 PM 62.6 °F - 19.8 °F 19% 30.05 in 10.0 mi SSW 18.4 mph 27.6 mph N/A   Scattered Clouds
3:35 PM 63.5 °F - 18.7 °F 18% 30.05 in 10.0 mi SW 13.8 mph 24.2 mph N/A   Scattered Clouds
3:55 PM 63.9 °F - 16.9 °F 16% 30.05 in 10.0 mi SSW 15.0 mph 19.6 mph N/A   Scattered Clouds
4:15 PM 63.7 °F - 16.9 °F 16% 30.05 in 10.0 mi SSW 18.4 mph 24.2 mph N/A   Clear
4:35 PM 63.0 °F - 17.6 °F 17% 30.06 in 10.0 mi SW 13.8 mph 20.7 mph N/A   Clear
4:55 PM 63.5 °F - 18.5 °F 18% 30.05 in 10.0 mi SSW 12.7 mph 19.6 mph N/A   Scattered Clouds
5:15 PM 62.6 °F - 19.4 °F 19% 30.05 in 10.0 mi SW 12.7 mph 19.6 mph N/A   Scattered Clouds
5:35 PM 62.2 °F - 19.0 °F 19% 30.04 in 10.0 mi SW 11.5 mph 20.7 mph N/A   Scattered Clouds
5:55 PM 61.9 °F - 19.2 °F 19% 30.04 in 10.0 mi SW 10.4 mph - N/A   Clear
6:15 PM 60.4 °F - 19.6 °F 21% 30.04 in 10.0 mi SW 5.8 mph - N/A   Clear
6:35 PM 58.1 °F - 20.1 °F 23% 30.04 in 10.0 mi Calm Calm - N/A   Clear
6:55 PM 50.0 °F - 19.6 °F 30% 30.04 in 10.0 mi Calm Calm - N/A   Clear
7:15 PM 47.8 °F - 19.6 °F 33% 30.05 in 10.0 mi Calm Calm - N/A   Clear
7:35 PM 46.4 °F - 19.4 °F 34% 30.05 in 10.0 mi Calm Calm - N/A   Clear
7:55 PM 49.8 °F - 19.8 °F 31% 30.06 in 10.0 mi Calm Calm - N/A   Scattered Clouds
8:15 PM 46.4 °F - 20.3 °F 36% 30.06 in 10.0 mi Calm Calm - N/A   Scattered Clouds
8:35 PM 44.4 °F - 19.9 °F 38% 30.06 in 10.0 mi Calm Calm - N/A   Clear
8:55 PM 45.0 °F - 19.8 °F 37% 30.07 in 10.0 mi Calm Calm - N/A   Clear
9:15 PM 42.3 °F - 19.4 °F 40% 30.07 in 10.0 mi Calm Calm - N/A   Clear
9:35 PM 41.2 °F - 20.5 °F 44% 30.07 in 10.0 mi Calm Calm - N/A   Clear
9:55 PM 42.8 °F - 21.0 °F 42% 30.07 in 10.0 mi Calm Calm - N/A   Clear
10:35 PM 42.3 °F - 20.3 °F 42% 30.08 in 10.0 mi Calm Calm - N/A   Clear
10:55 PM 42.3 °F - 19.8 °F 41% 30.09 in 10.0 mi Calm Calm - N/A   Clear
11:15 PM 40.3 °F - 20.5 °F 45% 30.09 in 10.0 mi Calm Calm - N/A   Clear
11:35 PM 41.2 °F 39.2 °F 20.5 °F 44% 30.09 in 10.0 mi NE 3.5 mph - N/A   Clear